Time,TemperatureF,DewpointF,PressureIn,WindDirection,WindDirectionDegrees,WindSpeedMPH,WindSpeedGustMPH,Humidity,HourlyPrecipIn,Conditions,Clouds,dailyrainin,SoftwareType,DateUTC
2013-07-05 00:02:00,58.0,-99.9,29.73,SW,225,11.0,20.0,-999,-99.99,,,-99.99,,2013-07-05 07:02:00,
2013-07-05 00:23:00,57.0,-99.9,29.73,SW,228,14.0,20.0,-999,-99.99,,,-99.99,,2013-07-05 07:23:00,
2013-07-05 00:34:00,57.0,-99.9,29.73,SW,234,14.0,22.0,-999,-99.99,,,-99.99,,2013-07-05 07:34:00,
2013-07-05 00:43:00,57.0,-99.9,29.73,WSW,244,12.0,17.0,-999,-99.99,,,-99.99,,2013-07-05 07:43:00,
2013-07-05 00:53:00,57.0,-99.9,29.73,SW,233,8.0,16.0,-999,-99.99,,,-99.99,,2013-07-05 07:53:00,
2013-07-05 01:03:00,57.0,-99.9,29.73,SW,235,8.0,16.0,-999,-99.99,,,-99.99,,2013-07-05 08:03:00,
2013-07-05 01:23:00,57.0,-99.9,29.73,WSW,242,11.0,16.0,-999,-99.99,,,-99.99,,2013-07-05 08:23:00,
2013-07-05 01:33:00,57.0,-99.9,29.73,WSW,247,12.0,18.0,-999,-99.99,,,-99.99,,2013-07-05 08:33:00,
2013-07-05 01:44:00,57.0,-99.9,29.73,WSW,248,15.0,20.0,-999,-99.99,,,-99.99,,2013-07-05 08:44:00,
2013-07-05 01:57:00,57.0,-99.9,29.73,West,259,11.0,16.0,-999,-99.99,,,-99.99,,2013-07-05 08:57:00,
2013-07-05 02:09:00,56.0,-99.9,29.73,WSW,254,14.0,19.0,-999,-99.99,,,-99.99,,2013-07-05 09:09:00,
2013-07-05 02:16:00,56.0,-99.9,29.73,WSW,254,14.0,19.0,-999,-99.99,,,-99.99,,2013-07-05 09:16:00,
2013-07-05 02:48:00,56.0,-99.9,29.73,WSW,255,11.0,53.0,-999,-99.99,,,-99.99,,2013-07-05 09:48:00,
2013-07-05 02:57:00,56.0,-99.9,29.73,WSW,242,16.0,20.0,-999,-99.99,,,-99.99,,2013-07-05 09:57:00,
2013-07-05 03:38:00,56.0,-99.9,29.73,WSW,253,10.0,20.0,-999,-99.99,,,-99.99,,2013-07-05 10:38:00,
2013-07-05 03:58:00,56.0,-99.9,29.73,WSW,255,14.0,23.0,-999,-99.99,,,-99.99,,2013-07-05 10:58:00,
2013-07-05 04:11:00,56.0,-99.9,29.73,WSW,251,15.0,19.0,-999,-99.99,,,-99.99,,2013-07-05 11:11:00,
2013-07-05 04:18:00,56.0,-99.9,29.73,WSW,254,14.0,20.0,-999,-99.99,,,-99.99,,2013-07-05 11:18:00,
2013-07-05 04:25:00,56.0,-99.9,29.73,WSW,257,14.0,20.0,-999,-99.99,,,-99.99,,2013-07-05 11:25:00,
2013-07-05 04:38:00,56.0,-99.9,29.73,WSW,253,12.0,18.0,-999,-99.99,,,-99.99,,2013-07-05 11:38:00,
2013-07-05 04:51:00,55.0,-99.9,29.73,WSW,244,14.0,19.0,-999,-99.99,,,-99.99,,2013-07-05 11:51:00,
2013-07-05 05:00:00,55.0,-99.9,29.73,WSW,250,12.0,19.0,-999,-99.99,,,-99.99,,2013-07-05 12:00:00,
2013-07-05 05:11:00,55.0,-99.9,29.73,West,262,15.0,19.0,-999,-99.99,,,-99.99,,2013-07-05 12:11:00,
2013-07-05 05:27:00,55.0,-99.9,29.73,West,262,14.0,19.0,-999,-99.99,,,-99.99,,2013-07-05 12:27:00,
2013-07-05 05:38:00,55.0,-99.9,29.73,West,266,14.0,19.0,-999,-99.99,,,-99.99,,2013-07-05 12:38:00,
2013-07-05 05:51:00,55.0,-99.9,29.73,West,263,14.0,19.0,-999,-99.99,,,-99.99,,2013-07-05 12:51:00,
2013-07-05 06:00:00,55.0,-99.9,29.74,West,262,12.0,19.0,-999,-99.99,,,-99.99,,2013-07-05 13:00:00,
2013-07-05 06:07:00,55.0,-99.9,29.74,West,259,12.0,17.0,-999,-99.99,,,-99.99,,2013-07-05 13:07:00,
2013-07-05 06:14:00,55.0,-99.9,29.74,West,259,12.0,17.0,-999,-99.99,,,-99.99,,2013-07-05 13:14:00,
2013-07-05 06:39:00,55.0,-99.9,29.75,West,270,14.0,19.0,-999,-99.99,,,-99.99,,2013-07-05 13:39:00,
2013-07-05 06:50:00,55.0,-99.9,29.75,West,264,14.0,19.0,-999,-99.99,,,-99.99,,2013-07-05 13:50:00,
2013-07-05 06:58:00,55.0,-99.9,29.75,West,263,15.0,23.0,-999,-99.99,,,-99.99,,2013-07-05 13:58:00,
2013-07-05 07:09:00,55.0,-99.9,29.75,West,266,13.0,23.0,-999,-99.99,,,-99.99,,2013-07-05 14:09:00,
2013-07-05 07:58:00,55.0,-99.9,29.77,West,270,14.0,24.0,-999,-99.99,,,-99.99,,2013-07-05 14:58:00,
2013-07-05 08:08:00,55.0,-99.9,29.77,West,268,13.0,19.0,-999,-99.99,,,-99.99,,2013-07-05 15:08:00,
2013-07-05 08:25:00,55.0,-99.9,29.78,West,263,13.0,17.0,-999,-99.99,,,-99.99,,2013-07-05 15:25:00,
2013-07-05 08:34:00,55.0,-99.9,29.79,West,273,12.0,21.0,-999,-99.99,,,-99.99,,2013-07-05 15:34:00,
2013-07-05 08:43:00,55.0,-99.9,29.79,West,275,11.0,16.0,-999,-99.99,,,-99.99,,2013-07-05 15:43:00,
2013-07-05 09:02:00,55.0,-99.9,29.79,West,261,13.0,21.0,-999,-99.99,,,-99.99,,2013-07-05 16:02:00,
2013-07-05 09:11:00,55.0,-99.9,29.80,West,264,13.0,19.0,-999,-99.99,,,-99.99,,2013-07-05 16:11:00,
2013-07-05 09:33:00,55.0,-99.9,29.79,WSW,258,12.0,20.0,-999,-99.99,,,-99.99,,2013-07-05 16:33:00,
2013-07-05 09:44:00,55.0,-99.9,29.80,WSW,248,11.0,17.0,-999,-99.99,,,-99.99,,2013-07-05 16:44:00,
2013-07-05 09:53:00,55.0,-99.9,29.80,WSW,250,11.0,20.0,-999,-99.99,,,-99.99,,2013-07-05 16:53:00,
2013-07-05 10:02:00,55.0,-99.9,29.80,WSW,247,12.0,21.0,-999,-99.99,,,-99.99,,2013-07-05 17:02:00,
2013-07-05 10:12:00,55.0,-99.9,29.80,WSW,247,12.0,21.0,-999,-99.99,,,-99.99,,2013-07-05 17:12:00,
2013-07-05 10:33:00,55.0,-99.9,29.80,WSW,247,14.0,21.0,-999,-99.99,,,-99.99,,2013-07-05 17:33:00,
2013-07-05 10:53:00,56.0,-99.9,29.80,WSW,253,14.0,24.0,-999,-99.99,,,-99.99,,2013-07-05 17:53:00,
2013-07-05 11:02:00,56.0,-99.9,29.80,WSW,240,11.0,19.0,-999,-99.99,,,-99.99,,2013-07-05 18:02:00,
2013-07-05 11:11:00,56.0,-99.9,29.80,WSW,242,11.0,17.0,-999,-99.99,,,-99.99,,2013-07-05 18:11:00,
2013-07-05 11:22:00,56.0,-99.9,29.80,WSW,242,11.0,17.0,-999,-99.99,,,-99.99,,2013-07-05 18:22:00,
2013-07-05 11:33:00,56.0,-99.9,29.79,WSW,246,15.0,20.0,-999,-99.99,,,-99.99,,2013-07-05 18:33:00,
2013-07-05 11:43:00,56.0,-99.9,29.79,WSW,252,15.0,20.0,-999,-99.99,,,-99.99,,2013-07-05 18:43:00,
2013-07-05 11:53:00,56.0,-99.9,29.80,WSW,255,10.0,16.0,-999,-99.99,,,-99.99,,2013-07-05 18:53:00,
2013-07-05 12:02:00,56.0,-99.9,29.80,WSW,244,10.0,18.0,-999,-99.99,,,-99.99,,2013-07-05 19:02:00,
2013-07-05 12:34:00,57.0,-99.9,29.80,SW,214,9.0,15.0,-999,-99.99,,,-99.99,,2013-07-05 19:34:00,
2013-07-05 12:43:00,57.0,-99.9,29.80,WSW,252,10.0,16.0,-999,-99.99,,,-99.99,,2013-07-05 19:43:00,
2013-07-05 13:02:00,56.0,-99.9,29.80,WSW,237,7.0,16.0,-999,-99.99,,,-99.99,,2013-07-05 20:02:00,
2013-07-05 13:22:00,56.0,-99.9,29.80,SW,224,5.0,16.0,-999,-99.99,,,-99.99,,2013-07-05 20:22:00,
2013-07-05 13:33:00,57.0,-99.9,29.80,SW,233,8.0,17.0,-999,-99.99,,,-99.99,,2013-07-05 20:33:00,
2013-07-05 13:53:00,57.0,-99.9,29.80,SW,221,9.0,17.0,-999,-99.99,,,-99.99,,2013-07-05 20:53:00,
2013-07-05 14:02:00,56.0,-99.9,29.80,SW,226,10.0,18.0,-999,-99.99,,,-99.99,,2013-07-05 21:02:00,
2013-07-05 14:12:00,56.0,-99.9,29.80,SW,232,7.0,14.0,-999,-99.99,,,-99.99,,2013-07-05 21:12:00,
2013-07-05 14:22:00,56.0,-99.9,29.80,SW,232,7.0,14.0,-999,-99.99,,,-99.99,,2013-07-05 21:22:00,
2013-07-05 14:43:00,57.0,-99.9,29.79,WSW,244,7.0,14.0,-999,-99.99,,,-99.99,,2013-07-05 21:43:00,
2013-07-05 14:53:00,57.0,-99.9,29.79,WSW,242,11.0,18.0,-999,-99.99,,,-99.99,,2013-07-05 21:53:00,
2013-07-05 15:02:00,58.0,-99.9,29.79,WSW,239,6.0,13.0,-999,-99.99,,,-99.99,,2013-07-05 22:02:00,
2013-07-05 15:22:00,58.0,-99.9,29.79,WSW,245,9.0,15.0,-999,-99.99,,,-99.99,,2013-07-05 22:22:00,
2013-07-05 15:34:00,58.0,-99.9,29.79,WSW,257,8.0,18.0,-999,-99.99,,,-99.99,,2013-07-05 22:34:00,
2013-07-05 15:43:00,58.0,-99.9,29.78,WSW,239,15.0,20.0,-999,-99.99,,,-99.99,,2013-07-05 22:43:00,
2013-07-05 15:53:00,58.0,-99.9,29.78,WSW,246,13.0,20.0,-999,-99.99,,,-99.99,,2013-07-05 22:53:00,
2013-07-05 16:02:00,58.0,-99.9,29.78,WSW,246,14.0,23.0,-999,-99.99,,,-99.99,,2013-07-05 23:02:00,
2013-07-05 16:32:00,58.0,-99.9,29.77,SW,233,9.0,20.0,-999,-99.99,,,-99.99,,2013-07-05 23:32:00,
2013-07-05 16:43:00,58.0,-99.9,29.77,WSW,239,12.0,26.0,-999,-99.99,,,-99.99,,2013-07-05 23:43:00,
2013-07-05 16:53:00,58.0,-99.9,29.77,WSW,240,13.0,22.0,-999,-99.99,,,-99.99,,2013-07-05 23:53:00,
2013-07-05 17:02:00,58.0,-99.9,29.76,WSW,252,12.0,21.0,-999,-99.99,,,-99.99,,2013-07-06 00:02:00,
2013-07-05 17:22:00,58.0,-99.9,29.76,SW,235,13.0,20.0,-999,-99.99,,,-99.99,,2013-07-06 00:22:00,
2013-07-05 17:33:00,58.0,-99.9,29.76,WSW,242,15.0,23.0,-999,-99.99,,,-99.99,,2013-07-06 00:33:00,
2013-07-05 17:43:00,58.0,-99.9,29.76,SW,235,12.0,20.0,-999,-99.99,,,-99.99,,2013-07-06 00:43:00,
2013-07-05 17:53:00,57.0,-99.9,29.76,SW,235,14.0,25.0,-999,-99.99,,,-99.99,,2013-07-06 00:53:00,
2013-07-05 18:02:00,57.0,-99.9,29.76,WSW,243,14.0,26.0,-999,-99.99,,,-99.99,,2013-07-06 01:02:00,
2013-07-05 18:12:00,57.0,-99.9,29.76,WSW,239,13.0,23.0,-999,-99.99,,,-99.99,,2013-07-06 01:12:00,
2013-07-05 18:22:00,57.0,-99.9,29.75,WSW,241,14.0,24.0,-999,-99.99,,,-99.99,,2013-07-06 01:22:00,
2013-07-05 18:33:00,57.0,-99.9,29.75,WSW,239,12.0,23.0,-999,-99.99,,,-99.99,,2013-07-06 01:33:00,
2013-07-05 18:43:00,57.0,-99.9,29.75,WSW,242,13.0,21.0,-999,-99.99,,,-99.99,,2013-07-06 01:43:00,
2013-07-05 18:53:00,-999.0,-99.9,29.75,WSW,243,11.0,17.0,-999,-99.99,,,-99.99,,2013-07-06 01:53:00,
2013-07-05 19:02:00,57.0,-99.9,29.75,SW,234,12.0,23.0,-999,-99.99,,,-99.99,,2013-07-06 02:02:00,
2013-07-05 19:34:00,57.0,-99.9,29.75,SW,233,11.0,23.0,-999,-99.99,,,-99.99,,2013-07-06 02:34:00,
2013-07-05 19:43:00,57.0,-99.9,29.75,SW,231,12.0,19.0,-999,-99.99,,,-99.99,,2013-07-06 02:43:00,
2013-07-05 19:53:00,56.0,-99.9,29.75,WSW,240,14.0,21.0,-999,-99.99,,,-99.99,,2013-07-06 02:53:00,
2013-07-05 20:02:00,56.0,-99.9,29.75,SW,229,14.0,23.0,-999,-99.99,,,-99.99,,2013-07-06 03:02:00,
2013-07-05 20:12:00,56.0,-99.9,29.75,SW,234,12.0,21.0,-999,-99.99,,,-99.99,,2013-07-06 03:12:00,
2013-07-05 20:22:00,56.0,-99.9,29.76,SW,224,10.0,17.0,-999,-99.99,,,-99.99,,2013-07-06 03:22:00,
2013-07-05 20:34:00,56.0,-99.9,29.76,SW,233,8.0,15.0,-999,-99.99,,,-99.99,,2013-07-06 03:34:00,
2013-07-05 20:43:00,56.0,-99.9,29.76,SW,224,12.0,20.0,-999,-99.99,,,-99.99,,2013-07-06 03:43:00,
2013-07-05 20:53:00,56.0,-99.9,29.77,SW,219,11.0,19.0,-999,-99.99,,,-99.99,,2013-07-06 03:53:00,
2013-07-05 21:02:00,56.0,-99.9,29.77,SW,235,7.0,14.0,-999,-99.99,,,-99.99,,2013-07-06 04:02:00,
2013-07-05 21:12:00,56.0,-99.9,29.77,SW,217,8.0,15.0,-999,-99.99,,,-99.99,,2013-07-06 04:12:00,
2013-07-05 21:33:00,56.0,-99.9,29.77,SW,230,10.0,18.0,-999,-99.99,,,-99.99,,2013-07-06 04:33:00,
2013-07-05 21:43:00,56.0,-99.9,29.77,SW,221,11.0,17.0,-999,-99.99,,,-99.99,,2013-07-06 04:43:00,
2013-07-05 21:53:00,56.0,-99.9,29.77,SW,221,12.0,18.0,-999,-99.99,,,-99.99,,2013-07-06 04:53:00,
2013-07-05 22:02:00,56.0,-99.9,29.77,SW,224,12.0,17.0,-999,-99.99,,,-99.99,,2013-07-06 05:02:00,
2013-07-05 22:12:00,56.0,-99.9,29.78,SW,228,10.0,17.0,-999,-99.99,,,-99.99,,2013-07-06 05:12:00,
2013-07-05 22:22:00,56.0,-99.9,29.78,WSW,246,9.0,15.0,-999,-99.99,,,-99.99,,2013-07-06 05:22:00,
2013-07-05 22:34:00,56.0,-99.9,29.78,SW,235,10.0,15.0,-999,-99.99,,,-99.99,,2013-07-06 05:34:00,
2013-07-05 22:43:00,55.0,-99.9,29.78,WSW,237,10.0,16.0,-999,-99.99,,,-99.99,,2013-07-06 05:43:00,
2013-07-05 22:53:00,56.0,-99.9,29.78,SW,232,6.0,13.0,-999,-99.99,,,-99.99,,2013-07-06 05:53:00,
2013-07-05 23:02:00,55.0,-99.9,29.78,WSW,249,10.0,15.0,-999,-99.99,,,-99.99,,2013-07-06 06:02:00,
2013-07-05 23:12:00,55.0,-99.9,29.78,WSW,242,9.0,13.0,-999,-99.99,,,-99.99,,2013-07-06 06:12:00,
2013-07-05 23:22:00,55.0,-99.9,29.78,WSW,242,9.0,13.0,-999,-99.99,,,-99.99,,2013-07-06 06:22:00,
2013-07-05 23:43:00,55.0,-99.9,29.78,SW,228,8.0,13.0,-999,-99.99,,,-99.99,,2013-07-06 06:43:00,
2013-07-05 23:53:00,55.0,-99.9,29.78,WSW,247,7.0,15.0,-999,-99.99,,,-99.99,,2013-07-06 06:53:00,